When you browse on this site, cookies collect data to enhance your experience and personalize the content and advertising you see.
Visit our Privacy Policy to learn more. By continuing to use the site, you agree to this use of cookies and data.
  • In Österreich
  • Länderverzeichnis
  • Für 7 Tage
  • Wassertemperatur
  • Satellitenkarten
  • Wetterkarte
  • News
  • Widgets
  • user-avatar
    Anmelden

    Stündliche Wetter Cooper City

    Heute, 27 Juni, Donnerstag

    Zeit Temperatur Niederschläge Wind Luftdruck Luftfeuchtigkeit
    00:00 +30°C° 0 mm 3 m/S 763 mmHg 67%
    01:00 +30°C° 0 mm 3 m/S 763 mmHg 68%
    02:00 +30°C° 0 mm 3 m/S 763 mmHg 70%
    03:00 +30°C° 0 mm 3 m/S 762 mmHg 72%
    04:00 +30°C° 0 mm 3 m/S 762 mmHg 73%
    05:00 +30°C° 0 mm 3 m/S 762 mmHg 73%
    06:00 +30°C° 0 mm 3 m/S 763 mmHg 72%
    07:00 +30°C° 0 mm 3 m/S 763 mmHg 72%
    08:00 +33°C° 0 mm 3 m/S 763 mmHg 64%
    09:00 +34°C° 0 mm 3 m/S 763 mmHg 56%
    10:00 +35°C° 0 mm 4 m/S 763 mmHg 49%
    11:00 +35°C° 0 mm 4 m/S 763 mmHg 47%
    12:00 +36°C° 0 mm 4 m/S 763 mmHg 44%
    13:00 +37°C° 0 mm 5 m/S 763 mmHg 42%
    14:00 +36°C° 0 mm 5 m/S 763 mmHg 43%
    15:00 +36°C° 0 mm 5 m/S 762 mmHg 44%
    16:00 +36°C° 0 mm 5 m/S 762 mmHg 45%
    17:00 +35°C° 0 mm 5 m/S 762 mmHg 49%
    18:00 +34°C° 0 mm 5 m/S 762 mmHg 53%
    19:00 +33°C° 0 mm 5 m/S 762 mmHg 57%
    20:00 +33°C° 0 mm 5 m/S 763 mmHg 60%
    21:00 +32°C° 0 mm 5 m/S 763 mmHg 63%
    22:00 +32°C° 0 mm 5 m/S 763 mmHg 67%
    23:00 +30°C° 0 mm 5 m/S 763 mmHg 67%

    Morgen, 28 Juni, Freitag

    Zeit Temperatur Niederschläge Wind Luftdruck Luftfeuchtigkeit
    00:00 +30°C° 0 mm 5 m/S 763 mmHg 67%
    01:00 +30°C° 0 mm 4 m/S 762 mmHg 68%
    02:00 +30°C° 0 mm 4 m/S 762 mmHg 68%
    03:00 +30°C° 0 mm 4 m/S 762 mmHg 68%
    04:00 +30°C° 0 mm 4 m/S 761 mmHg 69%
    05:00 +30°C° 0 mm 4 m/S 762 mmHg 68%
    06:00 +30°C° 0 mm 4 m/S 762 mmHg 68%
    07:00 +32°C° 0 mm 4 m/S 763 mmHg 68%
    08:00 +33°C° 0.1 mm 4 m/S 763 mmHg 64%
    09:00 +33°C° 0.1 mm 4 m/S 763 mmHg 60%
    10:00 +34°C° 0.1 mm 4 m/S 763 mmHg 56%
    11:00 +35°C° 0.1 mm 5 m/S 763 mmHg 54%
    12:00 +35°C° 0.1 mm 5 m/S 763 mmHg 52%
    13:00 +36°C° 0.1 mm 5 m/S 763 mmHg 50%
    14:00 +36°C° 0.1 mm 5 m/S 763 mmHg 50%
    15:00 +36°C° 0.1 mm 5 m/S 762 mmHg 50%
    16:00 +36°C° 0.1 mm 5 m/S 762 mmHg 51%
    17:00 +35°C° 0 mm 5 m/S 762 mmHg 54%
    18:00 +34°C° 0 mm 5 m/S 762 mmHg 57%
    19:00 +33°C° 0 mm 5 m/S 762 mmHg 60%
    20:00 +33°C° 0.1 mm 5 m/S 763 mmHg 60%
    21:00 +33°C° 0.1 mm 5 m/S 763 mmHg 61%
    22:00 +32°C° 0.1 mm 5 m/S 763 mmHg 61%
    23:00 +32°C° 0 mm 5 m/S 763 mmHg 62%

    übermorgen, 29 Juni, Samstag

    Zeit Temperatur Niederschläge Wind Luftdruck Luftfeuchtigkeit
    00:00 +32°C° 0 mm 5 m/S 763 mmHg 63%
    01:00 +32°C° 0 mm 5 m/S 762 mmHg 64%
    02:00 +32°C° 0 mm 5 m/S 762 mmHg 63%
    03:00 +32°C° 0 mm 4 m/S 762 mmHg 63%
    04:00 +32°C° 0 mm 4 m/S 762 mmHg 63%
    05:00 +32°C° 0.1 mm 4 m/S 762 mmHg 63%
    06:00 +32°C° 0.1 mm 4 m/S 762 mmHg 64%
    07:00 +32°C° 0.1 mm 4 m/S 763 mmHg 64%
    08:00 +32°C° 0.3 mm 4 m/S 763 mmHg 62%
    09:00 +33°C° 0.3 mm 4 m/S 763 mmHg 60%
    10:00 +33°C° 0.3 mm 5 m/S 764 mmHg 58%
    11:00 +33°C° 0.1 mm 4 m/S 763 mmHg 57%
    12:00 +33°C° 0.1 mm 4 m/S 763 mmHg 55%
    13:00 +33°C° 0.1 mm 3 m/S 763 mmHg 53%
    14:00 +33°C° 0 mm 3 m/S 763 mmHg 53%
    15:00 +33°C° 0 mm 3 m/S 763 mmHg 54%
    16:00 +33°C° 0 mm 3 m/S 763 mmHg 54%
    17:00 +33°C° 0 mm 3 m/S 763 mmHg 55%
    18:00 +33°C° 0 mm 4 m/S 763 mmHg 55%
    19:00 +32°C° 0 mm 4 m/S 763 mmHg 56%
    20:00 +32°C° 0.2 mm 4 m/S 763 mmHg 59%
    21:00 +32°C° 0.2 mm 4 m/S 763 mmHg 61%
    22:00 +32°C° 0.2 mm 4 m/S 764 mmHg 63%
    23:00 +30°C° 0 mm 4 m/S 763 mmHg 64%

    30 Juni, Sonntag

    Zeit Temperatur Niederschläge Wind Luftdruck Luftfeuchtigkeit
    00:00 +30°C° 0 mm 4 m/S 763 mmHg 66%
    01:00 +30°C° 0 mm 4 m/S 762 mmHg 67%
    02:00 +30°C° 0 mm 3 m/S 762 mmHg 67%
    03:00 +30°C° 0 mm 3 m/S 762 mmHg 67%
    04:00 +30°C° 0 mm 3 m/S 762 mmHg 67%
    05:00 +30°C° 0.3 mm 3 m/S 762 mmHg 68%
    06:00 +30°C° 0.3 mm 3 m/S 762 mmHg 69%
    07:00 +31°C° 0.3 mm 3 m/S 763 mmHg 70%
    08:00 +32°C° 1.2 mm 4 m/S 763 mmHg 66%
    09:00 +33°C° 1.2 mm 4 m/S 763 mmHg 62%
    10:00 +34°C° 1.2 mm 4 m/S 763 mmHg 58%
    11:00 +34°C° 0.3 mm 4 m/S 763 mmHg 53%
    12:00 +35°C° 0.3 mm 3 m/S 763 mmHg 49%
    13:00 +36°C° 0.3 mm 3 m/S 763 mmHg 44%
    14:00 +36°C° 0 mm 4 m/S 762 mmHg 46%
    15:00 +36°C° 0 mm 4 m/S 762 mmHg 47%
    16:00 +35°C° 0 mm 4 m/S 762 mmHg 49%
    17:00 +34°C° 0 mm 4 m/S 762 mmHg 52%
    18:00 +34°C° 0 mm 4 m/S 762 mmHg 56%
    19:00 +33°C° 0 mm 4 m/S 762 mmHg 60%
    20:00 +31°C° 0.2 mm 3 m/S 762 mmHg 63%
    21:00 +31°C° 0.2 mm 3 m/S 763 mmHg 65%
    22:00 +31°C° 0.2 mm 2 m/S 763 mmHg 68%
    23:00 +30°C° 0.1 mm 2 m/S 763 mmHg 68%

    1 Juli, Montag

    Zeit Temperatur Niederschläge Wind Luftdruck Luftfeuchtigkeit
    00:00 +30°C° 0.1 mm 2 m/S 762 mmHg 68%
    01:00 +30°C° 0.1 mm 2 m/S 762 mmHg 68%
    02:00 +30°C° 0 mm 1 m/S 762 mmHg 69%
    03:00 +30°C° 0 mm 1 m/S 762 mmHg 69%
    04:00 +30°C° 0 mm 1 m/S 762 mmHg 70%
    05:00 +30°C° 0.1 mm 1 m/S 762 mmHg 69%
    06:00 +30°C° 0.1 mm 1 m/S 762 mmHg 68%
    07:00 +30°C° 0.1 mm 1 m/S 763 mmHg 68%
    08:00 +31°C° 0.8 mm 1 m/S 763 mmHg 62%
    09:00 +33°C° 0.8 mm 1 m/S 763 mmHg 56%
    10:00 +34°C° 0.8 mm 1 m/S 763 mmHg 50%
    11:00 +35°C° 0 mm 2 m/S 763 mmHg 48%
    12:00 +36°C° 0 mm 2 m/S 763 mmHg 46%
    13:00 +37°C° 0 mm 3 m/S 763 mmHg 43%
    14:00 +36°C° 0.3 mm 3 m/S 762 mmHg 46%
    15:00 +35°C° 0.3 mm 3 m/S 762 mmHg 48%
    16:00 +35°C° 0.3 mm 3 m/S 762 mmHg 50%
    17:00 +34°C° 0.3 mm 3 m/S 762 mmHg 52%
    18:00 +34°C° 0.3 mm 3 m/S 761 mmHg 54%
    19:00 +33°C° 0.3 mm 3 m/S 761 mmHg 56%
    20:00 +33°C° 0 mm 3 m/S 762 mmHg 57%
    21:00 +33°C° 0 mm 3 m/S 762 mmHg 59%
    22:00 +31°C° 0 mm 2 m/S 762 mmHg 60%
    23:00 +31°C° 0 mm 2 m/S 762 mmHg 61%

    2 Juli, Dienstag

    Zeit Temperatur Niederschläge Wind Luftdruck Luftfeuchtigkeit
    00:00 +31°C° 0 mm 2 m/S 761 mmHg 61%
    01:00 +31°C° 0 mm 2 m/S 761 mmHg 62%
    02:00 +31°C° 0 mm 2 m/S 761 mmHg 64%
    03:00 +30°C° 0 mm 2 m/S 761 mmHg 65%
    04:00 +30°C° 0 mm 3 m/S 761 mmHg 66%
    05:00 +30°C° 0.3 mm 3 m/S 761 mmHg 66%
    06:00 +31°C° 0.3 mm 3 m/S 761 mmHg 65%
    07:00 +31°C° 0.3 mm 3 m/S 762 mmHg 65%
    08:00 +32°C° 0.2 mm 2 m/S 762 mmHg 59%
    09:00 +34°C° 0.2 mm 2 m/S 762 mmHg 54%
    10:00 +35°C° 0.2 mm 2 m/S 762 mmHg 48%
    11:00 +36°C° 0.2 mm 2 m/S 762 mmHg 47%
    12:00 +36°C° 0.2 mm 3 m/S 762 mmHg 47%
    13:00 +36°C° 0.2 mm 3 m/S 762 mmHg 46%
    14:00 +35°C° 0.7 mm 3 m/S 762 mmHg 48%
    15:00 +35°C° 0.7 mm 3 m/S 761 mmHg 51%
    16:00 +34°C° 0.7 mm 4 m/S 761 mmHg 53%
    17:00 +34°C° 0.3 mm 4 m/S 761 mmHg 55%
    18:00 +34°C° 0.3 mm 4 m/S 761 mmHg 57%
    19:00 +33°C° 0.3 mm 4 m/S 761 mmHg 59%
    20:00 +33°C° 0.1 mm 3 m/S 761 mmHg 61%
    21:00 +31°C° 0.1 mm 3 m/S 761 mmHg 62%
    22:00 +31°C° 0.1 mm 3 m/S 761 mmHg 64%
    23:00 +31°C° 0 mm 3 m/S 761 mmHg 64%
    Mehr zeigen